Location: Miss�
(46.9484°N, 0.1922°W)
Time: 08:57:35
(UTC+00:00)

SAR-Lupe-4 - Pass Details

Date: 02 March 2021
Orbit: 481 x 485 km, 98.2° (Epoch: 26 March)

Event Time Altitude Azimuth Distance (km) Brightness Sun altitude
Rises 18:30:26 0° 21° (NNE) 2,554 7.0 -8.0°
Reaches altitude 10° 18:32:36 10° 29° (NNE) 1,669 6.0 -8.4°
Maximum altitude 18:35:58 38° 99° (E) 750 4.0 -9.0°
Drops below altitude 10° 18:39:19 10° 169° (S) 1,656 6.2 -9.6°
Sets 18:41:28 0° 178° (S) 2,531 7.2 -9.9°
